This is the latest recevied weather packets stored in our database for station/object DG7YEO-13. If no packets are shown the sender has not sent any weather packets the latest 10 day(s).
| Time | Temp. | Humidity | Pressure | Rain* | Wind** | Luminosity | Snow |
|---|---|---|---|---|---|---|---|
| 1777725125 | 26.11° C | 43% | 1016.6 hPa | 0 mm | - | - | - |
| 1777724224 | 26.11° C | 42% | 1016.8 hPa | 0 mm | - | - | - |
| 1777723326 | 26.67° C | 42% | 1016.8 hPa | 0 mm | - | - | - |
| 1777722425 | 26.67° C | 41% | 1016.9 hPa | 0 mm | - | - | - |
| 1777721525 | 26.67° C | 40% | 1017.1 hPa | 0 mm | - | - | - |
| 1777720625 | 26.67° C | 40% | 1017.3 hPa | 0 mm | - | - | - |
| 1777719725 | 26.11° C | 40% | 1017.4 hPa | 0 mm | - | - | - |
| 1777718825 | 25.56° C | 39% | 1017.5 hPa | 0 mm | - | - | - |
| 1777717925 | 25.56° C | 38% | 1017.8 hPa | 0 mm | - | - | - |
| 1777717025 | 25.56° C | 37% | 1017.8 hPa | 0 mm | - | - | - |
| 1777716125 | 25.56° C | 37% | 1017.9 hPa | 0 mm | - | - | - |
| 1777715225 | 25° C | 38% | 1018 hPa | 0 mm | - | - | - |
| 1777714325 | 24.44° C | 37% | 1018.1 hPa | 0 mm | - | - | - |
| 1777713425 | 24.44° C | 38% | 1018.1 hPa | 0 mm | - | - | - |
| 1777712525 | 24.44° C | 38% | 1018.3 hPa | 0 mm | - | - | - |
| 1777711625 | 23.33° C | 40% | 1018.2 hPa | 0 mm | - | - | - |
| 1777710725 | 22.78° C | 42% | 1018.3 hPa | 0 mm | - | - | - |
| 1777709834 | 21.67° C | 43% | 1018.4 hPa | 0 mm | - | - | - |
| 1777708925 | 21.11° C | 44% | 1018.4 hPa | 0 mm | - | - | - |
| 1777708026 | 20.56° C | 46% | 1018.5 hPa | 0 mm | - | - | - |
| 1777707125 | 19.44° C | 49% | 1018.7 hPa | 0 mm | - | - | - |
| 1777706225 | 18.89° C | 50% | 1018.8 hPa | 0 mm | - | - | - |
| 1777705326 | 17.78° C | 52% | 1018.8 hPa | 0 mm | - | - | - |
| 1777704425 | 16.67° C | 55% | 1018.7 hPa | 0 mm | - | - | - |
| 1777703525 | 15.56° C | 58% | 1018.8 hPa | 0 mm | - | - | - |
* Rain latest hour (hover to see other rain measurements)
** Current wind speed in m/s (hover to see current wind gust speed)